Location: Holyhead Bay
(53.3667°N, 4.6667°W)
Time: 00:06:46
(UTC+00:00)

ADEOS Rocket - Pass Details

Date: 23 April 2021
Orbit: 859 x 1306 km, 98.7° (Epoch: 15 May)

Event Time Altitude Azimuth Distance (km) Brightness Sun altitude
Rises 00:44:20 0° 110° (ESE) 3,891 6.0 -23.8°
Reaches altitude 10° 00:47:17 10° 97° (E) 3,007 5.6 -23.8°
Maximum altitude 00:52:35 24° 47° (NE) 2,231 5.4 -23.6°
Drops below altitude 10° 00:58:13 10° 357° (N) 3,235 6.7 -23.5°
Sets 01:01:31 0° 345° (NNW) 4,252 7.4 -23.4°
